Wilmington, NC

9:47 AM EDT on September 26, 2017 (GMT -0400)
Wilmington International

Weather History for KILM - May, 2014

Change the Weather History Date:

Sunday, May 25, 2014

  Actual Average Record
Temperature  
Mean Temperature 69 °F 73 °F  
Max Temperature 81 °F 83 °F 97 °F (2011)
Min Temperature 57 °F 63 °F 49 °F (2013)
Degree Days  
Heating Degree Days 0 0  
Month to date heating degree days 0 25  
Since 1 July heating degree days 2432 2407  
Cooling Degree Days 4 8  
Month to date cooling degree days 223 141  
Year to date cooling degree days 338 229  
Growing Degree Days 19 (Base 50)    
Moisture  
Dew Point 57 °F    
Average Humidity 68    
Maximum Humidity 93    
Minimum Humidity 42    
Precipitation  
Precipitation 0.00 in 0.16 in 1.81 in (2000)
Month to date precipitation 2.05 3.47  
Year to date precipitation 18.80 17.88  
Sea Level Pressure  
Sea Level Pressure 30.16 in    
Wind  
Wind Speed 4 mph (SSE)    
Max Wind Speed 13 mph    
Max Gust Speed 17 mph    
Visibility 10 miles    
Events      
T = Trace of Precipitation, MM = Missing Value Source: NWS Daily Summary

Daily Weather History Graph

Daily Weather History Graph

Search for Another Location

Airport or City:

Trip Planner

Search our weather history database for the weather conditions in past years. The results will help you decide how hot, cold, wet, or windy it might be!

Date:

Astronomy

May. 25, 2014 Rise Set
Actual Time 6:03 AM EDT 8:13 PM EDT
Civil Twilight 5:35 AM EDT 8:42 PM EDT
Nautical Twilight 5:00 AM EDT 9:17 PM EDT
Astronomical Twilight 4:22 AM EDT 9:54 PM EDT
Moon 3:57 AM EDT (5/25) 5:20 PM EDT (5/25)
Length of Visible Light 15h 07m
Length of Day
14h 10m
Waning Crescent, 10% of the Moon is Illuminated
May 25
Waning Crescent
May 28
New
Jun 5
First Quarter
Jun 13
Full
Jun 19
Last Quarter

Hourly Weather History & Observations

Time (EDT) Temp. Heat Index Dew Point Humidity Pressure Visibility Wind Dir Wind Speed Gust Speed Precip Events Conditions
12:53 AM 62.1 °F - 57.9 °F 86% 30.13 in 10.0 mi NNE 3.5 mph - N/A   Clear
1:53 AM 62.6 °F - 57.2 °F 82% 30.12 in 10.0 mi Calm Calm - N/A   Clear
2:53 AM 61.0 °F - 57.0 °F 87% 30.12 in 8.0 mi Calm Calm - N/A   Clear
3:53 AM 59.0 °F - 57.0 °F 93% 30.12 in 9.0 mi Calm Calm - N/A   Clear
4:53 AM 59.0 °F - 55.4 °F 88% 30.12 in 10.0 mi Calm Calm - N/A   Clear
5:53 AM 59.0 °F - 55.9 °F 90% 30.13 in 10.0 mi Calm Calm - N/A   Clear
6:53 AM 59.0 °F - 55.9 °F 90% 30.15 in 6.0 mi NNE 3.5 mph - N/A   Clear
7:53 AM 66.9 °F - 61.0 °F 81% 30.17 in 10.0 mi NE 3.5 mph - N/A   Clear
8:53 AM 73.0 °F - 61.0 °F 66% 30.19 in 10.0 mi Calm Calm - N/A   Clear
9:53 AM 75.9 °F - 57.0 °F 52% 30.20 in 10.0 mi Calm Calm - N/A   Clear
10:53 AM 77.0 °F - 55.4 °F 47% 30.20 in 10.0 mi Calm Calm - N/A   Clear
11:53 AM 79.0 °F - 53.1 °F 40% 30.19 in 10.0 mi SW 4.6 mph - N/A   Clear
12:53 PM 79.0 °F - 57.9 °F 48% 30.18 in 10.0 mi SE 9.2 mph - N/A   Scattered Clouds
1:53 PM 80.1 °F 80.2 °F 55.9 °F 43% 30.17 in 10.0 mi SE 10.4 mph - N/A   Partly Cloudy
2:53 PM 79.0 °F - 55.0 °F 44% 30.17 in 10.0 mi SSE 8.1 mph - N/A   Clear
3:53 PM 78.1 °F - 55.9 °F 46% 30.16 in 10.0 mi SSE 8.1 mph - N/A   Clear
4:53 PM 78.1 °F - 55.9 °F 46% 30.15 in 10.0 mi SE 8.1 mph - N/A   Clear
5:53 PM 79.0 °F - 55.0 °F 44% 30.14 in 10.0 mi SSE 10.4 mph - N/A   Clear
6:53 PM 75.9 °F - 57.0 °F 52% 30.15 in 10.0 mi South 5.8 mph - N/A   Clear
7:53 PM 73.9 °F - 57.0 °F 55% 30.15 in 10.0 mi South 8.1 mph - N/A   Clear
8:53 PM 70.0 °F - 57.9 °F 65% 30.17 in 10.0 mi SSW 5.8 mph - N/A   Clear
9:53 PM 70.0 °F - 57.9 °F 65% 30.20 in 10.0 mi SSW 3.5 mph - N/A   Clear
10:53 PM 68.0 °F - 57.9 °F 70% 30.21 in 10.0 mi Calm Calm - N/A   Clear
11:53 PM 68.0 °F - 60.1 °F 76% 30.21 in 10.0 mi Calm Calm - N/A   Clear